Temp
15 15 15 15 15 15 15 15 16 16 16 16 16 16 16 17 17 16 16 16 15 15 15 14 14 14 13 13 13 13 12 12 12 11 11 11 10 10 10 10 10 10 9 9 9 9 9 9 9 9 8 9 9 9 9 9 9 10 10 10 10 11 11 11 12 12 12 12 12 12 12 12 12 13 13 13 13 13 13 14 14 14 14 15 15
15 15 15 15 15 15 16 16 16 16 16 16 16 16 16 16 16 16 16 15 15 15 15 14 14 14 13 13 12 12 12 12 12 11 11 11 10 10 10 10 9 9 9 9 9 9 8 9 9 8 8 8 8 9 9 9 9 10 10 10 10 10 10 10 11 11 12 12 12 12 11 11 12 12 12 12 12 12 13 13 14 14 14 14 14
15 15 15 15 15 15 16 16 16 16 15 15 16 16 16 16 16 16 16 15 15 15 15 14 14 14 13 13 12 12 12 12 12 11 11 10 10 10 10 9 9 9 9 9 9 8 8 8 8 8 8 8 8 8 8 8 9 9 9 9 9 9 9 10 10 10 11 11 11 11 11 11 11 11 11 11 12 12 13 13 13 14 14 14 14
14 14 14 14 15 15 15 15 15 15 15 15 15 15 15 16 16 16 15 15 15 15 15 14 14 14 13 12 12 12 12 12 11 11 11 10 10 10 9 9 9 9 8 8 8 8 8 8 8 8 8 8 8 8 8 8 8 8 8 9 9 9 9 9 9 9 10 10 10 10 11 11 11 11 11 11 11 12 12 13 13 13 14 14 14
13 13 13 14 14 14 14 14 14 14 14 15 15 15 15 14 15 15 15 15 15 15 14 14 14 13 13 13 12 12 12 12 11 11 10 10 10 9 9 8 8 8 8 8 8 8 7 7 8 7 7 7 7 7 7 7 7 7 8 8 8 9 8 8 9 9 9 10 10 10 10 10 10 11 10 11 11 12 12 12 13 13 13 13 13
12 13 13 13 13 13 13 13 13 13 14 14 14 14 14 14 14 13 13 13 13 14 14 14 14 13 13 13 12 12 12 12 11 10 10 10 9 9 8 8 8 8 8 7 7 7 7 7 7 7 7 7 7 7 7 7 7 7 7 7 8 8 8 8 8 8 9 9 9 9 10 10 10 10 10 10 11 11 11 12 12 13 13 13 13
13 12 12 13 13 13 13 13 12 12 13 13 14 14 13 13 13 12 12 12 12 13 13 14 14 13 13 13 12 12 12 11 11 10 10 9 9 8 8 8 8 8 8 7 7 7 7 7 7 7 6 6 6 6 6 6 6 6 6 6 7 7 7 7 8 8 8 8 9 9 9 9 9 10 10 10 10 10 11 11 12 13 13 13 13
12 12 12 12 13 13 13 13 13 12 13 13 13 13 13 13 12 12 12 13 13 13 13 13 13 13 13 12 12 12 11 11 10 10 9 9 9 8 8 8 7 7 7 7 7 7 7 7 7 6 6 6 6 5 5 5 5 6 6 6 6 6 7 7 7 7 8 8 8 9 9 9 9 9 9 9 10 10 11 11 12 12 12 13 13
11 11 11 12 12 12 12 12 12 12 12 13 13 13 13 13 12 12 12 12 13 13 13 13 13 13 12 12 12 11 11 10 10 9 9 8 8 8 7 7 7 6 6 6 6 6 6 6 6 6 6 6 5 5 5 5 4 5 5 6 6 6 6 6 7 7 7 8 8 8 9 9 9 9 9 9 10 10 10 10 11 11 11 12 12
11 11 11 11 11 11 12 12 12 12 12 12 12 12 12 12 12 12 12 12 12 13 13 13 13 12 12 12 11 11 10 10 9 9 8 8 7 7 7 6 6 6 6 6 6 5 5 5 5 5 5 5 5 5 4 4 4 4 4 4 5 5 6 6 7 7 7 8 8 8 8 9 9 9 9 9 9 9 9 9 10 10 11 11 12
10 11 11 11 11 11 11 11 11 11 12 12 12 12 12 12 12 12 11 11 12 12 12 12 12 12 12 11 10 10 9 9 9 8 8 7 7 7 6 6 6 5 5 5 5 5 5 5 4 4 4 4 4 4 3 3 3 3 3 3 4 4 4 5 6 6 7 7 7 8 8 8 8 8 8 8 8 8 8 9 9 10 11 11 12
9 10 10 11 11 11 11 11 11 11 11 11 11 12 12 12 11 11 11 11 11 11 11 11 11 11 11 10 9 9 8 8 8 7 7 7 7 6 6 5 5 5 5 5 4 4 4 4 4 3 3 3 3 3 3 3 3 3 3 3 3 3 3 4 4 5 6 6 7 7 7 8 7 7 7 7 8 8 8 8 8 9 10 10 11
9 9 9 10 10 11 11 11 11 11 11 11 11 11 11 11 11 11 11 11 11 10 10 11 11 10 10 9 9 8 7 7 7 7 7 6 6 6 5 5 5 4 4 4 4 3 3 3 3 3 3 2 2 3 3 3 3 3 2 2 2 2 2 3 3 3 4 5 6 6 7 7 7 7 7 7 6 7 7 7 8 8 9 10 10
9 9 9 9 10 10 11 10 10 10 10 10 10 10 11 11 11 11 11 10 10 10 10 10 10 9 9 9 8 7 7 7 7 7 6 6 6 6 5 5 4 4 4 3 3 3 3 3 3 3 2 2 2 2 2 2 3 3 3 3 3 3 3 3 3 3 3 3 4 5 5 6 6 6 6 6 6 6 6 7 7 8 8 9 9
8 9 9 9 10 10 10 10 10 10 10 10 10 10 10 10 10 10 10 9 9 9 10 10 9 9 8 8 8 7 7 7 7 6 6 6 6 5 5 4 4 3 3 3 2 2 2 2 2 2 2 2 2 2 1 2 2 2 2 3 3 3 4 4 3 3 3 3 3 4 4 5 5 5 5 5 5 5 5 6 6 6 7 7 7
8 8 9 9 9 9 10 10 10 10 10 10 10 10 10 10 10 10 9 9 9 9 9 9 9 8 8 8 7 7 6 7 6 6 6 6 5 5 4 4 3 3 3 2 2 2 2 2 2 2 2 2 2 1 1 1 1 1 2 2 2 3 3 3 3 2 2 2 3 3 3 4 4 4 4 4 4 5 5 5 5 5 6 7 7
8 9 9 9 9 9 9 9 10 9 9 9 10 10 9 9 9 9 8 8 8 8 9 8 8 7 7 7 7 7 7 6 6 6 6 5 5 4 4 4 3 3 3 2 2 2 1 1 1 1 1 2 2 1 0 0 0 1 1 1 2 2 2 2 2 1 1 1 1 1 1 2 2 2 2 2 3 3 3 4 5 5 6 7 8
9 9 9 9 9 9 9 9 9 9 9 9 10 9 9 9 8 8 8 8 8 8 8 7 7 7 7 7 7 7 6 6 6 6 5 5 5 4 4 4 3 3 3 2 2 2 2 1 1 1 1 1 1 1 0 -0 -0 0 0 1 1 1 1 1 1 1 1 1 0 0 0 1 1 1 1 1 2 2 2 3 4 5 6 7 7
9 9 9 9 9 9 9 9 9 9 9 9 9 9 8 8 7 7 7 7 7 7 7 7 7 7 7 7 6 6 6 6 6 6 5 5 5 4 4 4 3 3 3 2 2 2 2 2 2 1 1 1 0 -0 -0 -1 -1 -0 -0 -0 0 0 1 1 1 1 1 1 1 1 1 1 1 1 1 1 1 1 2 3 4 4 5 6 7
9 9 9 8 8 8 8 9 9 9 9 8 8 8 7 6 6 6 6 6 6 7 7 7 6 6 6 6 6 6 6 6 6 5 5 5 4 4 3 3 3 3 3 2 2 2 3 3 2 2 1 0 -0 -1 -1 -1 -1 -1 -1 -1 -0 -0 0 0 0 0 0 0 1 1 1 1 0 1 1 1 2 2 2 2 3 4 5 5 6
8 8 8 8 8 8 8 8 8 8 8 8 7 7 6 6 6 6 6 6 6 6 6 6 6 6 6 6 6 6 6 6 5 5 5 5 4 4 3 3 3 3 2 2 2 2 2 2 2 1 0 -0 -1 -1 -1 -1 -2 -2 -1 -1 -1 -1 -1 -1 -1 -0 -0 -0 -0 0 0 0 0 0 1 1 2 2 2 3 3 3 4 5 5
7 7 7 7 7 7 7 7 8 7 7 7 6 6 6 7 7 7 6 6 6 6 6 6 6 6 6 6 6 6 6 5 5 5 5 4 4 4 3 2 2 1 1 2 2 2 1 1 1 0 -0 -1 -1 -2 -2 -2 -2 -2 -2 -2 -2 -2 -2 -1 -1 -1 -1 -1 -0 -0 0 0 1 0 0 1 2 2 3 3 3 3 4 4 5
7 7 7 7 7 7 7 7 7 6 6 6 6 6 6 6 7 7 6 6 6 6 6 6 6 6 6 6 6 6 5 5 5 5 5 4 4 3 3 2 1 0 0 1 1 1 0 0 0 -0 -1 -2 -2 -2 -2 -3 -3 -2 -2 -2 -2 -2 -2 -2 -2 -1 -1 -1 -1 -0 -0 0 1 1 0 1 1 2 2 3 3 3 4 4 4
6 6 6 7 7 6 6 6 6 6 6 6 6 6 6 6 7 7 7 7 7 7 7 6 6 6 6 6 6 6 5 5 5 4 4 4 3 3 2 2 1 -0 -1 -0 0 -0 -0 -0 -1 -1 -2 -2 -2 -3 -3 -2 -2 -2 -2 -2 -2 -2 -2 -2 -2 -1 -1 -1 -1 -1 -0 0 0 1 1 1 1 1 2 2 3 3 4 4 4
6 6 6 6 6 6 5 5 5 5 6 6 7 6 6 7 7 7 7 7 7 6 6 6 6 6 6 5 5 5 5 5 4 4 4 3 3 2 1 1 -0 -1 -1 -1 -1 -1 -1 -1 -2 -2 -2 -2 -2 -2 -2 -2 -2 -2 -2 -2 -2 -2 -2 -2 -1 -1 -1 -1 -1 -0 -0 0 0 1 1 1 1 1 1 1 2 3 3 3 3
6 6 6 5 5 5 5 5 5 5 6 6 6 6 7 7 7 7 7 6 6 6 6 6 6 5 5 5 5 4 4 4 4 4 3 2 2 1 0 0 -1 -1 -1 -1 -1 -1 -1 -2 -2 -2 -2 -2 -2 -2 -2 -2 -2 -2 -2 -2 -2 -2 -1 -1 -1 -1 -1 -1 -1 -0 -0 0 0 0 0 0 0 1 1 1 2 2 3 3 3
5 5 5 4 4 4 4 4 5 5 5 6 6 7 7 7 6 6 6 6 6 6 6 6 5 5 5 5 4 4 4 4 4 3 2 1 1 1 0 0 -0 -1 -1 -1 -1 -1 -1 -1 -2 -2 -2 -2 -2 -1 -1 -1 -1 -1 -1 -1 -1 -1 -1 -1 -1 -1 -1 -1 -1 -1 -0 -0 -0 -0 -0 -0 0 0 1 1 1 2 2 3 3
4 4 4 4 4 4 4 5 5 5 6 6 6 6 6 6 6 6 6 6 6 6 6 5 5 5 5 5 4 4 4 4 3 2 1 0 -0 -0 -0 -0 -1 -1 -1 -1 -2 -2 -2 -1 -1 -1 -1 -1 -1 -1 -1 -1 -1 -1 -1 -0 -0 -0 -0 -1 -1 -1 -1 -1 -1 -1 -1 -1 -1 -0 -0 -0 -0 0 1 1 1 2 2 2 3
4 4 4 4 4 4 4 5 5 6 6 6 7 7 7 7 7 7 7 7 6 6 6 5 5 5 4 4 4 4 3 3 2 1 1 1 -0 -1 -1 -1 -2 -2 -2 -2 -3 -2 -2 -1 -1 -1 -1 -1 -1 -1 -1 -1 -1 -1 -1 -1 -1 -0 -0 -1 -1 -1 -1 -1 -1 -1 -1 -1 -1 -1 -1 -1 -0 -0 0 1 1 1 1 2 2
5 5 5 5 5 6 6 6 6 6 6 7 7 7 7 7 7 7 7 6 6 6 6 5 5 4 4 3 3 3 2 2 2 1 1 1 0 -1 -1 -2 -2 -2 -2 -3 -3 -2 -1 -1 -1 -1 -1 -1 -1 -1 -1 -1 -1 -1 -1 -1 -1 -1 -1 -1 -1 -1 -1 -1 -1 -1 -1 -1 -1 -1 -1 -1 -1 -0 -0 0 0 1 1 1 2
5 6 6 6 6 6 6 7 7 6 7 7 7 7 6 6 7 7 6 6 6 5 5 5 4 4 4 3 3 3 2 2 2 1 1 1 0 -0 -1 -2 -2 -2 -3 -3 -2 -1 -1 -1 -1 -1 -1 -1 -1 -1 -1 -1 -1 -1 -1 -1 -1 -1 -1 -1 -1 -1 -1 -1 -1 -1 -1 -1 -1 -1 -1 -1 -1 -1 -0 -0 -0 0 0 1 1
5 5 5 5 5 6 6 7 7 7 7 7 7 7 7 6 6 6 6 6 5 5 5 5 4 4 4 3 3 3 2 2 2 1 1 0 0 -0 -1 -1 -2 -2 -2 -2 -2 -1 -1 -1 -1 -1 -2 -2 -2 -1 -2 -2 -2 -2 -2 -2 -1 -1 -1 -1 -1 -1 -2 -1 -1 -1 -1 -1 -1 -1 -1 -1 -1 -1 -0 -0 -0 0 0 1 1
5 5 5 5 5 6 6 7 7 7 7 7 7 7 7 7 6 6 5 5 5 5 5 4 4 4 4 3 3 3 2 2 2 1 1 1 0 -0 -1 -1 -2 -2 -2 -2 -1 -1 -1 -1 -2 -2 -2 -2 -2 -2 -2 -2 -2 -2 -2 -2 -2 -2 -1 -1 -2 -2 -2 -2 -1 -1 -1 -1 -1 -1 -1 -1 -1 -1 -0 -0 0 0 1 1 1
5 5 5 5 6 6 6 7 7 7 7 7 7 7 7 7 7 6 6 5 5 5 4 4 4 4 3 3 3 3 2 2 2 1 1 1 0 -0 -1 -1 -1 -2 -2 -2 -1 -1 -1 -2 -2 -2 -2 -2 -2 -2 -2 -2 -2 -2 -2 -2 -2 -2 -2 -2 -2 -2 -2 -2 -1 -1 -1 -1 -1 -1 -1 -1 -1 -0 -0 -0 0 1 1 1 2
5 5 6 6 6 6 7 7 7 7 7 7 7 7 7 7 7 7 7 7 6 6 5 4 4 4 4 3 3 3 2 2 2 2 2 1 0 -1 -1 -1 -1 -1 -1 -1 -1 -2 -2 -2 -2 -2 -2 -2 -2 -2 -2 -2 -2 -2 -2 -2 -2 -2 -2 -2 -2 -2 -2 -2 -1 -1 -1 -1 -1 -1 -1 -0 -0 -0 -0 0 0 1 1 2 2
6 6 6 6 6 6 7 8 8 8 8 8 8 7 7 7 7 7 7 7 6 6 5 4 4 4 4 3 3 3 2 2 2 2 2 1 -0 -1 -1 -0 -1 -1 -2 -2 -2 -2 -2 -2 -2 -2 -3 -3 -3 -3 -3 -3 -3 -3 -3 -2 -2 -2 -2 -2 -2 -2 -2 -1 -1 -1 -1 -1 -1 -1 -1 -1 -0 -0 0 0 0 1 1 2 2
6 6 7 7 6 6 7 8 8 8 8 8 8 8 7 7 7 7 6 6 6 6 5 4 4 4 4 3 3 3 3 3 3 3 2 0 -1 -1 -0 -1 -1 -1 -2 -2 -2 -2 -2 -2 -2 -2 -3 -3 -3 -3 -3 -3 -3 -3 -3 -3 -3 -3 -2 -2 -2 -2 -2 -1 -1 -1 -1 -1 -1 -1 -1 -1 -0 -0 0 0 1 1 1 1 2
6 6 7 7 6 6 7 8 8 8 8 8 8 8 7 7 7 7 6 6 6 5 5 4 4 4 4 3 3 3 3 3 3 2 1 0 -0 -0 -0 -1 -1 -1 -2 -2 -2 -2 -3 -2 -2 -3 -3 -3 -3 -3 -3 -3 -3 -3 -3 -3 -3 -3 -2 -2 -2 -2 -1 -1 -1 -1 -1 -1 -1 -1 -1 -1 -0 0 0 0 1 1 1 1 2
7 7 7 7 7 7 7 8 8 8 8 8 7 7 7 7 6 6 6 6 6 5 5 5 4 4 3 3 3 3 3 3 2 2 1 0 -0 -1 -1 -1 -1 -2 -2 -2 -2 -3 -3 -3 -3 -3 -3 -3 -3 -3 -3 -3 -3 -3 -3 -3 -3 -3 -2 -2 -2 -2 -1 -1 -1 -0 -0 -1 -1 -1 -1 -0 -0 -0 0 0 0 1 1 1 2
7 7 7 7 7 7 7 7 7 7 7 7 7 7 7 6 6 6 6 5 5 4 4 4 3 3 3 3 3 3 3 2 2 1 0 -0 -1 -1 -1 -1 -2 -2 -2 -2 -2 -3 -3 -3 -3 -3 -3 -3 -3 -3 -3 -3 -3 -3 -3 -3 -3 -3 -2 -2 -2 -2 -1 -1 -1 -0 -0 -0 -0 -0 -0 -0 -0 -0 0 0 0 0 1 1 2
7 7 6 6 6 7 7 7 7 7 7 7 6 6 6 5 5 5 5 4 4 3 3 3 2 2 2 2 2 2 2 1 0 0 -0 -1 -1 -2 -2 -2 -2 -2 -2 -2 -3 -3 -3 -3 -3 -3 -3 -3 -3 -3 -3 -3 -3 -3 -3 -3 -3 -3 -2 -2 -2 -2 -2 -1 -0 0 0 -0 -0 -0 -0 -0 -0 -0 0 0 0 0 1 1 1
6 6 6 6 7 7 7 7 7 6 6 6 5 5 5 4 4 4 3 3 3 3 2 2 1 1 1 1 2 2 1 -0 -1 -1 -1 -2 -2 -2 -2 -2 -2 -2 -2 -3 -3 -3 -3 -3 -3 -3 -3 -3 -3 -3 -3 -3 -3 -3 -3 -3 -3 -3 -3 -2 -2 -2 -2 -1 -0 0 0 0 0 0 0 0 0 0 0 0 0 1 1 1 1
6 6 6 6 7 7 6 6 5 5 4 4 4 4 3 3 3 3 3 2 2 2 2 1 0 -0 0 1 2 2 -0 -2 -2 -2 -2 -2 -2 -2 -2 -2 -2 -2 -3 -3 -3 -3 -3 -3 -3 -3 -3 -3 -3 -3 -3 -3 -3 -3 -3 -3 -3 -3 -3 -2 -2 -2 -2 -1 -1 -0 0 1 1 1 1 1 0 0 1 1 0 0 0 0 0
6 6 6 6 5 5 5 4 4 3 3 3 2 2 2 1 1 0 0 0 -0 -0 -1 -1 -2 -2 -2 -1 -1 -1 -2 -3 -3 -3 -3 -3 -3 -3 -3 -3 -3 -3 -3 -3 -3 -3 -3 -3 -3 -3 -3 -3 -3 -3 -3 -3 -3 -3 -3 -3 -3 -3 -3 -2 -2 -2 -2 -1 -1 -0 0 0 1 1 1 1 1 0 0 0 0 0 0 0 0
4 5 4 4 3 3 2 2 2 1 1 0 0 -0 -1 -1 -2 -2 -2 -2 -3 -3 -3 -3 -3 -3 -3 -3 -3 -3 -3 -3 -3 -3 -3 -3 -3 -3 -3 -3 -3 -3 -3 -3 -3 -3 -3 -3 -3 -3 -3 -3 -3 -3 -3 -3 -3 -3 -3 -3 -3 -3 -2 -2 -2 -2 -1 -1 -1 -1 -0 -0 0 0 0 0 0 0 0 -0 0 0 0 0 0
3 3 2 2 1 0 -0 -0 -1 -1 -1 -2 -2 -2 -2 -3 -3 -3 -3 -3 -4 -3 -3 -3 -4 -4 -3 -3 -4 -4 -4 -4 -4 -4 -4 -4 -4 -3 -3 -3 -3 -3 -3 -3 -3 -3 -3 -3 -3 -3 -3 -3 -3 -3 -3 -3 -3 -3 -3 -3 -3 -2 -2 -2 -2 -2 -1 -1 -1 -1 -1 -0 -0 -0 -0 -0 -0 -0 -0 -0 -0 -0 0 0 0
2 1 0 -0 -1 -1 -2 -2 -2 -3 -3 -3 -3 -3 -3 -3 -4 -4 -4 -4 -4 -4 -4 -4 -4 -4 -4 -4 -4 -4 -4 -4 -4 -4 -4 -4 -4 -4 -3 -3 -3 -3 -3 -3 -3 -3 -3 -3 -3 -3 -3 -3 -3 -3 -3 -3 -3 -3 -3 -2 -2 -2 -2 -1 -1 -1 -1 -1 -1 -1 -1 -1 -1 -1 -1 -1 -1 -1 -1 -1 -0 -0 -0 -0 -0
0 -1 -1 -2 -2 -2 -2 -3 -3 -3 -3 -4 -4 -4 -4 -4 -4 -4 -5 -5 -5 -5 -4 -4 -5 -5 -5 -5 -5 -5 -5 -5 -5 -5 -5 -5 -5 -4 -4 -3 -3 -4 -3 -3 -3 -3 -3 -3 -3 -3 -3 -3 -3 -4 -3 -3 -3 -3 -3 -2 -2 -2 -2 -1 -1 -1 -1 -1 -1 -1 -1 -1 -1 -1 -1 -1 -1 -1 -1 -1 -1 -1 -1 -1 -1
-2 -2 -3 -3 -3 -3 -3 -3 -3 -3 -3 -4 -4 -4 -4 -4 -4 -5 -5 -5 -5 -5 -5 -5 -5 -5 -5 -5 -5 -5 -5 -5 -5 -5 -6 -5 -5 -5 -4 -3 -3 -3 -3 -3 -3 -3 -3 -3 -3 -3 -3 -3 -3 -4 -4 -3 -3 -3 -3 -2 -2 -2 -1 -1 -1 -1 -1 -1 -1 -1 -1 -1 -1 -1 -1 -1 -1 -1 -1 -1 -1 -1 -1 -1 -1
-3 -3 -3 -3 -3 -3 -3 -4 -4 -4 -4 -4 -4 -4 -4 -4 -4 -5 -5 -5 -5 -6 -6 -6 -6 -6 -6 -6 -6 -6 -6 -6 -6 -6 -6 -6 -6 -5 -5 -4 -3 -3 -3 -3 -3 -3 -3 -3 -3 -3 -3 -3 -3 -4 -4 -3 -3 -3 -3 -2 -2 -2 -2 -1 -1 -1 -1 -1 -1 -1 -1 -1 -1 -1 -1 -1 -1 -1 -1 -1 -1 -1 -1 -1 -1
-4 -4 -4 -4 -4 -4 -4 -4 -4 -4 -4 -3 -4 -4 -4 -4 -4 -5 -5 -5 -5 -5 -6 -6 -6 -6 -6 -6 -6 -6 -7 -7 -6 -6 -6 -6 -6 -6 -5 -5 -4 -3 -3 -3 -3 -3 -3 -3 -3 -3 -3 -3 -3 -4 -3 -3 -3 -3 -3 -2 -2 -2 -2 -1 -1 -1 -1 -1 -1 -1 -1 -1 -1 -1 -1 -1 -1 -1 -1 -1 -1 -1 -1 -1 -1
Height
788 789 791 792 794 795 796 797 798 799 800 802 803 804 806 807 808 809 811 812 814 815 816 817 818 820 820 821 822 823 824 825 825 826 826 827 827 827 828 828 828 829 829 829 829 829 829 830 829 829 829 829 828 828 827 827 826 826 825 825 824 824 823 822 819 814 813 814 813 812 812 811 810 809 808 807 806 805 805 804 803 802 801 801 800
787 787 788 789 790 792 793 794 795 796 797 798 800 801 802 804 805 807 808 810 812 813 814 816 817 818 819 820 821 821 822 823 823 824 825 825 826 826 826 827 827 827 827 828 828 828 828 828 828 828 827 827 827 826 826 825 824 824 823 822 822 822 821 820 818 814 811 811 812 811 810 810 808 807 807 806 805 804 803 802 801 800 800 799 798
786 786 786 787 787 788 790 791 792 793 794 795 796 797 799 800 802 804 805 807 809 810 812 813 815 816 817 818 819 820 820 821 822 823 824 824 825 825 826 826 826 827 827 827 827 827 827 827 827 826 826 826 825 825 824 823 823 822 821 821 820 819 819 818 817 814 810 809 809 809 808 808 807 806 806 804 803 803 801 800 800 799 798 797 796
785 785 785 785 785 787 788 789 789 790 791 791 792 793 795 797 798 800 801 803 805 807 809 811 813 814 815 816 817 818 818 819 821 821 822 823 824 824 825 825 826 826 826 826 826 826 826 826 826 825 825 824 824 823 822 822 821 820 819 818 818 817 816 816 815 813 809 807 806 807 807 806 805 805 804 803 802 801 800 799 798 797 796 795 795
784 784 784 784 784 785 786 786 787 787 788 789 789 791 792 794 795 796 797 799 801 804 806 808 810 811 812 814 815 816 817 818 819 820 821 822 822 823 824 824 825 825 825 825 825 825 825 825 824 824 823 823 822 822 821 820 819 819 818 816 816 815 814 813 812 811 809 805 803 804 804 804 803 803 802 801 800 799 798 797 795 794 794 793 792
782 782 783 783 783 783 783 785 785 785 786 786 787 788 789 791 792 794 796 799 801 802 804 805 807 808 810 811 813 814 815 816 818 819 819 820 821 822 822 823 823 823 823 824 823 823 823 823 822 822 821 821 820 819 819 819 818 817 816 815 814 813 812 811 810 809 808 805 802 800 800 801 800 799 800 799 798 797 795 794 793 792 791 790 790
781 782 782 782 782 781 781 783 784 783 783 783 784 785 786 787 788 790 794 798 800 801 803 804 804 805 807 809 810 812 813 814 815 817 818 819 820 820 821 822 822 822 822 822 822 821 821 820 820 819 819 818 817 817 817 816 816 815 814 813 812 811 810 809 808 807 806 803 801 798 797 797 797 796 796 796 795 794 793 791 790 789 788 787 787
781 782 782 782 782 781 780 781 781 781 781 781 781 782 783 784 785 787 789 791 793 796 798 800 801 802 804 806 807 809 810 811 813 814 816 817 818 819 820 821 821 821 821 820 820 819 818 818 817 816 816 815 814 814 813 813 813 812 812 811 810 809 808 807 805 804 803 801 799 797 795 794 794 793 792 792 792 791 790 789 787 786 786 785 784
781 781 781 781 781 780 779 779 779 778 778 778 778 779 780 781 782 783 785 787 789 792 793 795 796 797 798 800 802 805 807 808 810 812 814 815 817 818 819 820 820 820 820 819 818 817 816 815 814 813 812 811 811 810 809 810 810 809 809 809 808 807 806 804 803 802 800 798 796 795 793 791 791 790 789 789 788 788 788 787 785 784 784 782 781
780 780 779 779 779 778 777 776 776 776 775 775 775 776 777 778 779 781 782 784 786 788 789 791 792 793 794 795 797 799 802 804 807 809 811 813 815 816 817 818 819 818 818 817 816 815 814 813 811 810 809 808 807 806 805 805 805 805 805 805 805 804 803 802 800 799 797 796 794 793 791 788 788 788 787 786 786 786 786 785 783 782 782 780 778
778 778 778 777 776 775 775 774 774 773 773 773 773 773 775 776 777 778 780 781 783 784 786 788 790 792 793 794 795 797 799 802 804 806 809 811 813 814 815 816 817 816 816 815 814 812 811 810 809 807 806 805 804 803 802 801 800 800 800 801 801 801 800 799 797 796 795 792 791 790 788 786 786 786 785 784 784 784 783 783 782 780 780 778 775
777 776 776 775 774 774 773 772 771 771 771 771 771 771 772 773 775 776 777 778 780 782 784 786 788 791 793 794 796 797 798 800 803 805 807 809 810 811 813 814 814 814 814 812 811 810 809 807 806 804 803 802 801 800 798 797 796 796 796 796 796 796 796 796 794 793 792 789 787 786 785 784 783 783 783 782 782 781 781 781 780 778 778 776 774
775 775 774 773 773 772 771 770 769 768 768 769 769 769 770 771 772 773 774 776 778 780 782 784 787 789 791 794 796 797 798 800 802 804 806 807 808 809 810 811 812 812 811 810 809 807 806 804 802 801 799 798 797 796 795 794 793 792 792 791 791 791 791 791 790 790 789 787 784 782 782 782 781 780 781 781 780 779 779 778 777 776 775 773 772
773 773 772 771 771 770 769 768 767 767 766 766 767 767 767 768 770 771 772 774 776 778 780 783 785 787 790 793 796 798 799 800 801 803 805 806 806 807 808 809 809 809 808 807 805 804 803 801 799 797 796 795 794 793 792 791 790 789 788 787 786 786 786 786 785 785 785 783 781 778 779 779 778 777 779 779 778 777 776 775 775 773 772 771 770
771 771 770 769 768 768 767 766 765 765 764 764 765 765 765 766 767 768 770 772 774 776 778 781 784 787 789 792 795 797 799 800 801 802 803 804 805 805 806 806 806 806 805 804 802 801 799 797 795 794 793 792 791 790 789 789 787 786 785 783 782 782 782 781 781 780 779 779 777 775 775 776 775 775 776 776 775 775 774 773 772 772 771 769 767
769 768 767 767 766 766 765 764 763 762 762 762 762 762 763 764 765 766 768 771 773 775 777 779 782 785 788 791 793 796 798 799 801 802 802 803 803 804 804 804 804 803 802 800 799 797 796 794 792 791 789 789 788 787 787 786 784 782 781 779 778 777 777 777 777 776 775 774 772 771 771 771 771 771 771 772 772 772 772 770 769 769 768 765 763
767 766 765 764 764 763 762 761 760 760 760 760 760 760 761 762 763 765 767 769 772 774 776 779 782 785 787 789 792 795 797 799 800 801 801 802 802 803 803 803 802 801 799 797 796 794 793 792 790 788 787 785 784 784 784 783 782 780 777 776 774 773 772 772 772 771 770 769 768 767 766 766 766 766 766 767 768 769 770 766 765 766 764 760 758
764 763 762 761 761 760 760 759 758 757 757 757 758 758 759 760 762 764 766 768 771 773 777 780 784 786 787 789 792 795 796 798 800 800 800 801 801 802 802 801 800 798 796 794 793 792 790 789 787 786 784 782 781 781 781 780 779 777 774 772 771 769 769 769 768 766 765 764 763 762 761 761 761 760 761 761 762 765 764 761 761 762 759 755 754
760 759 758 758 757 757 756 755 755 754 754 755 755 756 757 759 761 764 767 769 771 774 778 782 785 787 789 791 793 794 796 798 799 799 800 800 800 800 800 799 797 795 794 792 790 789 788 786 784 782 780 778 777 777 777 777 775 773 771 769 767 765 765 765 764 763 762 760 759 758 757 756 756 755 755 755 756 757 757 756 757 757 754 751 751
757 756 754 754 753 753 752 751 751 751 751 752 753 754 756 758 761 764 768 772 775 777 780 782 785 788 790 792 793 794 796 797 797 798 799 799 799 798 798 797 795 793 792 790 788 786 785 783 780 778 777 775 774 773 773 772 771 769 768 766 762 761 762 761 760 759 758 756 755 754 753 752 752 751 750 750 749 750 750 750 751 750 749 748 748
753 752 751 750 749 749 748 747 747 748 749 750 751 753 755 757 760 764 768 772 776 779 781 782 785 789 791 792 793 795 796 796 797 797 797 797 797 797 796 795 794 792 790 788 786 784 781 779 776 775 773 771 770 769 768 767 767 765 763 761 759 758 759 757 756 756 754 753 751 750 749 748 747 746 745 745 744 743 743 743 743 744 743 743 742
749 748 747 746 745 745 744 744 744 745 747 748 751 753 756 758 760 764 767 771 775 778 780 782 784 788 790 791 793 795 796 796 796 796 796 796 796 795 794 793 791 790 787 785 783 780 778 775 773 771 769 767 765 764 762 762 761 759 757 756 754 755 755 753 752 751 750 748 747 745 744 743 742 741 740 739 739 738 738 737 737 738 737 737 737
746 745 744 742 742 742 741 741 742 743 746 748 751 753 756 758 761 764 768 772 775 777 779 782 785 788 790 791 793 794 795 795 794 795 794 794 794 793 792 790 788 787 784 782 779 776 774 771 769 767 766 764 761 759 758 757 756 754 752 751 750 750 749 748 747 746 745 743 742 740 739 738 736 735 735 734 734 733 733 732 732 732 732 732 732
742 741 740 739 739 739 739 740 741 743 746 749 751 754 757 760 763 766 769 772 774 777 780 783 785 788 789 791 792 793 794 794 794 793 793 792 791 790 788 786 784 783 781 778 775 772 770 768 765 763 761 758 756 754 752 751 750 748 746 746 745 745 744 742 741 740 739 738 736 734 732 732 731 729 729 729 729 729 729 729 728 728 728 728 728
739 738 738 738 738 738 739 741 742 745 748 750 752 755 758 760 763 766 769 772 775 778 781 784 786 787 789 790 791 792 793 793 792 792 791 789 788 786 784 782 780 778 776 774 771 768 766 763 761 758 755 753 751 749 747 745 744 742 741 740 740 739 738 737 735 734 733 731 730 728 726 725 724 724 724 725 725 725 725 725 725 724 724 724 724
737 737 737 737 738 739 740 742 745 747 750 753 755 757 759 761 763 766 769 773 775 779 782 785 786 787 788 790 791 791 792 792 791 790 789 787 785 783 780 778 776 774 772 770 767 764 762 759 756 754 751 749 747 745 743 741 739 738 736 735 735 733 732 731 730 729 727 725 723 722 720 719 719 719 720 720 720 720 721 721 720 720 720 720 720
736 737 737 738 740 741 742 744 747 750 753 756 758 760 762 764 765 768 771 774 776 779 783 785 786 787 788 789 790 790 791 791 790 790 788 785 783 780 778 776 774 771 769 767 764 761 758 756 753 750 748 746 744 742 739 737 736 734 732 731 730 729 728 727 725 724 722 720 718 716 715 715 715 715 715 715 715 715 716 716 716 716 716 716 716
736 738 739 741 743 744 746 747 749 752 755 757 759 762 764 765 767 770 772 775 777 779 782 784 786 787 787 788 789 790 790 790 789 787 785 782 779 777 775 773 771 769 767 764 762 759 755 753 750 748 746 743 741 739 737 735 733 731 730 728 727 725 724 722 720 718 716 715 713 711 710 710 710 709 709 709 709 710 711 712 712 712 713 713 712
738 740 742 744 746 748 751 752 753 755 757 759 761 763 765 767 769 771 773 775 777 779 781 783 785 786 787 787 788 789 789 788 787 785 782 779 777 775 773 772 769 767 765 762 759 756 753 751 749 746 744 742 739 737 735 733 731 729 727 725 723 721 719 717 715 713 711 710 708 706 705 705 704 704 705 704 704 705 707 708 708 709 709 709 708
741 743 746 748 750 752 754 756 757 758 759 761 763 765 767 769 770 772 774 776 778 779 781 783 784 785 786 787 787 787 787 786 784 782 779 777 775 774 772 770 768 765 762 760 757 755 752 750 748 746 743 741 738 735 733 731 728 725 723 721 719 716 714 712 709 707 705 704 702 701 700 699 698 698 699 699 699 701 702 703 704 705 705 705 705
745 747 749 751 753 756 757 759 760 761 761 762 763 766 768 771 773 774 776 777 779 780 781 783 784 785 785 785 785 785 785 784 782 780 778 776 774 772 770 768 766 763 761 758 756 754 752 750 747 745 743 740 737 734 731 729 726 723 720 717 714 712 709 706 704 702 701 699 697 695 694 693 692 692 693 693 694 696 697 698 700 700 700 701 701
748 750 753 755 756 758 760 761 762 763 763 764 765 767 769 771 774 776 778 778 779 781 782 783 783 783 783 783 784 784 783 782 780 779 777 775 773 771 769 766 764 762 760 758 756 754 752 750 747 744 742 739 736 733 730 727 723 720 717 713 710 708 705 702 700 698 696 694 692 690 689 688 687 686 687 688 689 690 692 693 694 695 695 696 697
752 753 755 757 758 760 761 762 763 764 764 766 767 768 770 772 774 776 778 780 781 781 782 782 782 782 782 782 782 782 782 781 780 778 776 774 772 770 767 765 763 761 759 757 756 754 751 749 746 743 740 737 734 731 728 724 721 718 714 711 707 704 701 698 696 693 691 689 687 685 683 682 682 681 682 683 684 685 686 688 689 690 691 691 692
755 756 757 758 759 761 762 763 764 765 766 767 768 769 771 772 774 776 778 779 780 780 781 781 781 781 781 781 781 781 781 781 779 778 775 773 771 768 766 764 763 760 759 757 755 753 751 748 745 742 739 735 732 729 726 722 718 715 711 707 704 700 697 694 691 688 686 683 681 679 677 677 677 677 677 678 679 680 681 683 684 685 686 686 688
757 758 758 759 760 761 763 764 765 766 767 768 769 770 771 772 773 775 776 777 778 779 780 780 780 780 780 780 781 781 781 780 778 776 774 772 769 767 766 764 762 760 758 756 754 752 749 747 744 740 737 734 730 727 723 719 715 712 708 704 700 696 693 690 687 684 681 678 676 673 672 671 671 672 673 674 675 676 677 678 680 681 681 682 684
757 758 759 760 761 762 763 764 765 766 767 768 769 770 771 772 773 774 774 775 776 777 778 779 779 779 779 780 780 780 780 778 777 775 773 770 768 767 765 763 761 759 757 755 753 751 748 745 742 738 735 731 728 724 720 716 713 709 705 701 698 694 690 686 683 680 677 674 671 669 667 667 667 668 669 670 671 672 673 674 676 677 678 679 681
757 758 759 759 761 762 762 763 765 766 767 768 769 770 771 772 773 773 774 775 775 776 777 777 778 778 779 779 779 779 778 776 775 773 771 769 768 767 765 763 760 758 756 754 752 749 746 743 740 737 733 729 726 722 718 714 710 706 702 699 695 691 688 684 680 676 673 670 667 664 663 662 663 664 665 666 667 669 670 671 673 674 675 677 678
756 757 758 759 760 762 762 763 765 766 767 768 769 770 771 772 772 773 773 774 774 775 776 776 777 779 779 779 778 777 776 774 773 772 770 769 768 766 764 762 760 758 755 753 751 748 745 742 739 735 731 728 724 720 716 712 708 704 700 696 692 689 685 681 677 673 670 666 663 660 659 659 660 661 662 663 665 666 667 669 670 672 673 675 676
755 756 756 758 759 761 762 763 765 766 768 769 770 771 771 772 772 772 772 772 773 774 775 776 777 778 778 778 777 775 774 774 773 772 770 769 767 766 763 761 759 757 755 752 750 747 744 741 738 734 730 726 722 719 715 711 707 703 699 695 690 686 682 678 674 670 667 663 660 657 656 656 657 658 660 661 662 664 665 666 668 670 671 673 674
754 755 756 757 759 761 762 764 765 767 768 769 770 771 771 772 771 771 771 771 772 773 775 776 777 778 777 777 775 774 774 773 773 772 770 768 767 765 763 761 759 756 754 752 749 747 744 740 736 733 729 725 721 718 714 710 705 701 697 694 689 685 681 676 672 668 665 661 658 656 655 655 656 657 658 659 660 662 663 665 666 668 670 671 673
754 755 756 758 760 761 762 764 765 767 768 769 770 770 771 771 770 770 770 771 772 774 775 776 777 777 776 776 774 773 773 773 772 771 770 768 766 764 762 760 758 756 754 751 749 746 743 739 736 732 729 725 721 717 713 709 705 700 696 692 688 683 679 675 671 667 664 660 658 655 655 655 655 656 657 658 659 661 662 663 665 666 668 670 671
755 757 758 759 761 762 763 764 766 767 769 769 770 770 770 770 770 770 771 772 773 774 775 776 777 776 776 775 773 773 772 772 772 771 769 767 765 763 762 760 758 756 754 751 748 745 742 739 736 732 728 724 721 717 713 708 704 700 695 691 687 683 678 674 670 667 663 661 658 656 655 655 655 656 656 657 659 660 661 662 664 665 667 669 670
757 758 760 761 762 763 764 765 767 768 769 769 770 770 771 771 771 771 772 772 773 775 776 776 776 776 775 774 773 772 771 771 771 770 768 767 765 763 762 760 758 756 754 751 748 745 742 739 736 732 728 725 721 717 713 709 704 699 695 691 687 682 678 674 670 667 664 661 658 656 655 655 655 656 656 657 658 659 660 662 663 665 666 668 670
759 759 761 762 763 764 765 766 768 768 769 769 770 771 771 772 772 772 773 773 774 775 776 776 776 776 774 773 772 771 771 771 770 769 768 766 765 763 761 760 758 756 754 751 748 746 743 739 736 732 728 725 721 717 713 709 704 700 696 691 687 682 679 675 671 668 665 662 660 658 657 656 656 656 657 658 658 659 660 662 663 665 667 669 671
760 760 762 764 765 766 767 768 769 769 770 771 772 772 772 773 773 774 774 775 776 776 777 777 776 775 774 773 772 772 771 771 770 769 768 766 764 763 761 760 758 756 754 752 749 746 743 740 736 732 728 725 721 717 713 709 704 700 696 692 688 683 680 676 672 669 666 664 662 660 658 658 657 657 658 659 659 660 661 663 664 666 668 670 673
762 763 764 765 766 768 769 770 771 771 772 772 773 773 774 775 775 776 776 777 777 777 777 777 777 776 775 774 773 772 771 770 770 769 767 766 764 763 761 759 758 756 754 752 749 746 743 740 737 733 729 726 722 717 713 709 705 701 697 693 689 685 681 677 674 671 668 665 663 662 661 660 660 659 660 660 661 662 663 665 666 668 671 673 675
765 766 767 768 769 770 771 772 773 773 773 774 774 775 776 777 778 778 778 778 778 778 778 777 777 776 775 774 773 772 771 770 769 768 767 766 764 762 761 759 757 756 754 752 749 747 744 741 737 734 730 727 723 719 714 710 706 702 697 694 690 686 682 679 675 672 670 667 666 664 663 662 662 662 662 663 664 665 666 668 669 671 673 675 678
768 769 770 771 772 773 774 774 775 775 775 776 776 777 778 779 779 779 779 779 778 778 778 778 777 777 776 775 774 773 771 770 769 768 767 765 764 762 760 759 757 755 754 752 750 747 744 742 739 735 731 728 724 720 716 712 708 703 699 695 692 688 684 681 678 675 672 670 668 667 666 665 665 665 666 666 667 668 669 671 673 675 676 678 681
770 771 773 774 775 775 776 776 776 777 777 778 778 779 780 780 781 780 780 780 779 779 778 778 778 777 776 776 774 773 772 770 768 768 766 765 763 762 760 759 757 755 754 752 750 748 745 743 740 737 733 729 726 722 718 714 710 705 702 698 694 690 687 684 681 678 675 673 671 670 669 669 669 669 669 670 670 671 673 674 677 679 680 682 685
773 774 775 776 777 777 778 778 778 779 779 780 780 781 781 782 782 782 781 781 780 780 779 779 778 778 777 776 775 774 772 770 769 768 766 765 763 761 760 758 757 756 754 752 751 749 746 744 741 738 735 731 727 724 720 716 712 708 705 701 697 694 690 687 684 682 679 677 675 674 673 673 673 673 674 675 675 676 677 679 681 683 685 687 690
776 777 777 778 778 779 779 780 780 781 782 782 782 783 783 783 783 783 783 782 782 781 781 780 779 779 778 777 776 774 773 771 770 768 767 765 763 762 760 759 757 756 754 753 751 749 747 745 743 740 736 733 730 726 722 719 715 711 708 704 700 697 694 691 688 686 683 681 680 679 678 678 678 678 679 680 680 681 682 684 686 687 690 692 695
Wind_Speed
25 25 26 26 27 28 29 30 30 30 30 29 29 28 27 27 26 24 23 22 22 21 20 18 17 16 15 13 11 9 8 7 6 5 4 2 2 2 2 2 1 1 2 2 3 4 5 6 6 7 8 9 9 9 8 7 7 7 7 7 9 9 10 12 13 14 14 13 14 15 13 14 15 14 15 16 15 15 16 16 16 17 15 14 15
25 26 26 27 28 30 31 31 31 31 30 30 31 31 30 29 28 26 24 23 23 22 21 20 18 17 16 15 13 11 9 8 7 6 4 3 2 0 1 1 1 1 1 1 3 4 5 6 7 8 10 10 10 10 10 9 8 8 8 8 9 9 9 12 14 15 15 14 14 15 13 12 14 13 13 15 16 17 18 18 16 15 14 15 15
24 25 25 26 28 30 31 32 32 32 31 32 32 32 32 31 30 29 27 25 23 23 22 21 20 19 18 16 14 12 11 9 8 6 5 4 2 1 0 1 1 1 0 1 3 5 6 7 8 9 11 12 11 11 11 10 9 10 10 10 10 10 10 11 13 15 17 17 14 14 14 13 14 15 14 14 16 18 18 18 17 15 15 14 14
21 22 23 24 27 28 29 30 31 31 32 33 34 33 33 32 32 30 28 26 24 23 23 22 21 21 20 18 16 14 12 10 8 6 5 4 3 1 1 1 1 1 2 3 4 6 6 7 8 10 12 12 12 12 11 10 10 10 11 11 11 12 11 11 13 15 17 18 16 14 16 16 17 17 15 14 15 16 17 18 18 17 16 15 15
13 17 20 22 23 24 26 27 27 28 30 32 33 33 32 32 32 32 31 29 26 24 23 24 23 23 21 20 17 14 12 10 7 6 5 5 3 2 2 2 2 3 4 5 7 8 8 9 10 11 12 13 13 12 11 11 11 11 11 12 12 12 12 12 14 15 17 20 19 17 16 17 18 18 17 15 15 15 16 17 18 18 17 18 18
6 9 14 17 20 22 23 24 24 26 28 30 31 31 30 30 30 29 26 23 23 24 24 25 25 24 23 20 17 14 11 9 7 7 7 5 4 3 3 3 4 5 7 7 8 10 11 12 13 13 13 13 13 13 12 12 12 12 12 12 12 12 13 13 14 16 18 20 21 20 18 16 17 18 17 15 15 16 16 16 17 17 17 17 16
10 7 8 13 17 20 22 23 24 25 26 27 29 29 29 29 27 26 22 20 21 23 24 26 26 25 24 20 16 14 11 10 9 9 7 6 5 5 5 5 6 8 9 10 12 13 15 15 16 15 14 13 13 13 12 13 12 13 13 13 12 12 13 13 13 15 16 18 19 20 19 17 16 17 16 14 15 17 17 17 17 16 15 15 15
13 10 7 8 12 15 19 20 23 26 27 26 26 27 29 29 27 25 25 26 25 25 26 28 28 27 24 20 16 14 12 11 11 10 9 7 6 5 5 6 7 9 11 13 14 16 17 18 18 17 15 15 14 14 14 13 13 14 14 13 13 13 14 14 14 14 15 16 17 18 18 17 15 15 15 14 15 16 15 16 16 15 15 15 15
13 11 9 7 8 10 12 14 17 20 23 24 24 25 26 27 27 25 24 25 26 26 29 31 31 29 26 22 19 17 15 14 13 12 10 8 6 5 5 7 8 10 11 13 15 17 18 18 19 19 19 19 19 19 18 17 16 16 16 15 15 15 15 15 15 14 15 15 16 16 16 16 15 14 14 13 13 13 13 14 16 17 17 17 17
13 12 11 10 10 10 10 11 12 14 17 20 22 23 24 25 25 24 24 24 26 28 31 32 32 31 28 25 22 20 19 17 14 12 9 7 4 3 5 7 9 11 13 14 15 16 17 17 18 20 21 21 21 20 20 20 19 19 19 19 18 17 17 17 16 16 15 15 15 15 15 16 14 14 15 14 13 14 15 16 16 16 16 17 16
13 13 13 13 14 13 12 12 11 12 14 16 19 21 21 22 23 23 24 25 27 30 32 33 31 29 26 25 23 22 20 17 14 11 8 5 3 2 5 8 10 12 13 14 15 16 16 16 16 17 18 18 18 18 19 21 21 20 21 21 21 21 20 20 18 17 17 17 17 16 16 17 16 15 15 14 13 14 15 16 15 15 15 15 14
12 12 12 13 14 14 14 13 12 13 13 14 17 20 20 20 21 23 24 26 28 31 32 32 30 26 24 23 22 21 19 16 13 10 6 4 2 3 6 9 11 12 13 14 15 15 15 15 15 15 15 17 18 17 18 19 20 20 21 21 22 24 25 25 23 21 19 19 19 18 18 18 17 16 15 14 14 15 16 16 15 15 16 16 16
12 12 12 12 13 14 15 15 14 14 14 13 15 18 20 19 20 22 24 26 29 31 31 31 28 25 24 22 21 19 17 14 11 8 5 2 2 4 7 10 12 13 14 15 14 14 15 15 15 14 15 16 17 16 16 17 17 19 20 21 22 23 25 27 28 27 26 24 23 22 20 19 18 17 16 16 15 16 17 17 16 16 17 17 18
12 12 12 13 14 14 15 15 15 15 14 12 12 16 19 20 20 23 25 26 29 30 30 29 26 25 23 22 20 17 15 12 9 6 3 1 4 6 9 13 15 15 16 16 15 15 15 15 15 15 15 16 15 15 15 16 16 18 19 19 20 21 23 24 26 28 29 29 30 29 25 23 23 21 20 20 19 18 19 18 17 17 18 18 19
13 13 14 15 15 15 16 16 16 15 14 12 12 14 18 20 21 23 25 27 29 31 30 28 26 24 23 21 18 15 12 9 6 3 1 3 6 9 12 16 16 15 16 16 15 15 16 15 15 16 16 15 15 16 16 17 18 20 20 20 21 21 22 23 23 24 26 27 29 29 27 26 26 25 23 23 22 21 21 21 20 19 20 21 22
14 15 16 16 16 17 16 16 17 15 13 13 13 14 17 20 22 23 25 26 28 29 28 27 27 25 23 19 16 13 9 5 3 1 2 5 8 10 13 14 13 13 15 15 16 16 15 15 15 15 16 16 16 17 18 19 20 21 21 21 22 22 23 23 23 24 26 26 28 29 29 28 27 27 25 24 24 22 20 21 21 20 20 22 22
16 16 17 17 17 18 17 17 18 17 14 14 14 15 18 21 22 24 26 27 29 29 28 28 26 24 20 16 13 10 7 4 2 1 4 7 9 11 12 12 12 13 14 15 16 15 14 14 16 17 17 17 17 18 18 19 20 22 22 23 23 24 24 22 22 24 25 26 28 30 31 32 32 33 32 31 30 26 23 22 21 19 19 19 18
17 17 17 18 18 19 18 17 18 17 15 15 15 16 18 21 22 24 28 30 30 29 28 25 21 18 15 12 10 7 6 3 0 3 5 8 11 12 12 12 13 14 15 15 15 15 15 16 17 18 19 18 18 20 20 20 22 23 24 25 25 26 25 22 22 23 23 23 25 27 29 30 32 34 35 35 35 32 30 27 23 20 21 19 17
20 19 20 20 20 19 19 19 19 17 16 16 17 18 19 20 21 22 24 27 29 27 25 22 18 14 12 10 8 6 4 2 2 5 7 9 12 13 12 13 15 16 16 17 17 16 17 18 19 19 20 21 21 22 22 22 24 24 25 26 27 27 24 23 23 23 22 22 23 23 24 25 25 27 29 31 32 33 34 31 26 24 24 22 21
23 22 21 21 20 20 20 21 20 17 16 18 19 20 20 21 22 23 25 26 27 25 22 20 17 13 10 8 6 4 3 2 4 6 8 10 12 14 14 14 16 18 17 18 19 20 20 21 20 19 20 22 23 24 24 24 24 25 25 26 28 27 24 24 24 25 25 25 25 25 25 25 24 24 24 25 27 29 32 32 31 30 28 25 24
23 22 21 21 21 21 21 20 18 16 18 21 21 21 23 25 28 30 31 29 26 22 20 18 15 11 7 6 4 2 2 4 5 7 9 10 13 15 15 15 16 18 18 19 22 23 22 21 21 20 21 22 23 24 25 26 27 27 27 28 29 29 28 28 28 28 28 29 29 28 27 26 25 25 24 24 24 25 27 30 31 32 32 29 26
21 21 21 21 21 20 18 16 15 16 20 23 24 25 27 31 34 34 32 29 25 21 18 15 13 9 6 4 2 2 4 6 6 8 10 12 14 16 17 17 19 19 19 21 23 23 22 21 21 21 21 23 25 27 29 30 30 30 31 32 33 33 33 32 30 29 29 29 28 28 27 26 26 25 24 24 24 24 25 27 29 30 32 33 30
24 22 21 21 18 15 14 15 16 19 22 26 30 32 33 35 35 33 30 27 23 20 17 14 11 8 5 3 2 3 5 6 7 9 11 13 15 17 18 21 22 20 20 22 24 22 21 21 21 22 24 27 30 31 32 32 32 31 32 34 35 35 35 33 31 30 29 28 27 28 28 27 27 26 25 24 25 24 25 26 28 29 30 31 32
22 20 19 16 12 12 14 17 20 25 29 33 36 36 35 35 33 29 27 25 22 19 16 12 10 7 4 2 2 3 5 7 8 10 12 14 17 19 22 24 24 21 19 21 22 21 21 22 24 27 29 31 32 33 33 32 31 31 32 33 33 33 32 31 29 28 27 27 27 27 28 27 27 27 26 24 24 24 24 24 25 28 29 29 29
18 16 13 9 10 14 18 22 27 32 35 38 38 37 35 34 31 27 24 22 20 17 14 10 7 5 3 3 3 4 6 8 10 12 14 17 19 21 22 23 21 20 19 20 20 21 23 25 28 29 30 30 30 29 28 27 27 28 29 30 29 29 28 27 27 26 25 26 26 28 28 27 27 27 26 24 24 23 23 23 24 25 27 28 28
12 9 8 11 16 21 25 28 31 34 36 36 35 35 34 32 30 27 23 21 18 15 12 9 6 5 4 4 4 5 7 8 10 11 13 15 17 18 19 18 18 18 19 19 20 22 24 25 26 27 26 26 25 24 24 24 24 26 26 26 25 24 23 24 24 24 24 25 26 27 28 27 26 26 25 24 25 24 22 22 23 23 24 25 26
6 9 13 17 21 26 29 30 30 31 33 33 32 31 31 30 28 25 23 20 16 14 12 8 6 5 4 3 4 5 6 6 8 10 11 12 14 15 15 16 17 18 18 19 20 22 23 24 24 23 23 22 22 22 22 23 23 22 21 21 20 20 21 22 23 24 25 25 26 27 27 26 25 25 25 24 24 24 23 22 22 21 21 22 24
16 18 20 21 22 24 27 29 30 31 32 33 32 29 27 27 25 23 20 18 16 14 12 9 6 5 4 4 4 4 5 6 9 12 14 14 15 15 15 16 17 17 18 19 21 21 21 21 20 20 20 20 19 19 20 20 20 20 20 20 20 21 22 23 24 26 27 27 26 27 27 26 25 26 24 24 24 24 23 22 22 22 21 20 21
22 24 24 24 22 22 22 25 28 30 31 31 29 26 24 24 24 22 19 16 15 14 13 11 8 6 6 5 5 4 5 8 12 15 15 15 16 15 14 15 16 16 18 20 20 19 18 18 18 19 19 19 19 20 20 20 20 20 20 21 21 21 22 24 25 27 29 27 27 28 29 27 27 27 25 24 25 25 23 23 23 22 21 20 20
25 25 25 25 24 23 23 23 25 27 29 30 28 25 23 22 22 21 18 15 14 14 13 12 9 8 8 8 7 7 8 11 15 16 15 15 16 16 15 14 14 15 18 19 17 16 16 17 18 19 19 20 20 20 21 21 21 21 21 21 21 22 23 24 25 27 28 28 28 28 28 27 27 27 26 26 26 26 25 25 25 24 22 21 20
26 26 26 26 26 25 24 23 23 24 26 29 28 26 23 20 18 17 16 16 15 13 11 10 9 8 8 8 8 9 11 14 17 17 16 15 16 16 15 14 14 16 18 16 14 14 16 17 18 19 20 20 21 21 22 22 22 22 22 22 22 22 22 23 24 24 25 25 26 27 27 27 27 27 26 26 26 25 25 26 27 26 25 24 22
24 22 22 23 22 22 23 23 22 23 24 26 27 26 23 19 17 16 15 14 13 11 9 8 8 7 8 8 7 9 12 15 17 17 16 15 16 16 15 15 16 18 17 13 12 14 16 17 18 19 20 20 21 22 22 23 23 23 23 23 23 23 22 23 24 25 25 24 25 25 25 25 25 25 25 25 24 23 23 24 25 25 25 24 23
17 15 16 17 18 18 20 21 22 23 24 25 25 23 19 16 15 15 14 13 12 10 8 7 6 6 7 7 8 9 11 14 16 17 15 15 16 16 15 15 16 17 16 13 13 15 16 17 19 19 19 20 21 22 23 23 23 23 23 23 24 24 23 23 24 26 26 26 26 26 26 25 24 23 23 23 22 21 21 21 22 22 22 22 21
11 10 12 14 15 16 19 21 22 23 24 25 24 20 16 14 15 14 13 12 11 10 8 6 6 6 6 6 7 8 10 12 15 16 16 17 17 16 14 13 14 15 15 14 14 16 17 18 19 19 19 20 21 22 23 23 23 23 23 23 24 25 25 24 24 25 25 25 26 27 27 25 23 21 20 20 20 20 20 20 20 20 20 20 20
8 8 10 12 14 16 19 22 23 23 24 24 22 19 17 16 15 13 11 10 9 9 8 7 6 5 5 5 5 6 7 10 14 16 17 19 18 15 13 13 14 14 15 15 15 17 18 18 19 19 19 20 21 22 23 23 23 23 23 23 24 25 25 25 24 25 25 25 24 24 24 23 22 20 19 19 19 19 19 20 19 18 19 19 18
9 9 9 12 15 17 18 21 22 22 22 21 19 17 16 15 13 11 9 7 7 8 8 7 6 5 5 4 4 5 7 10 13 16 18 19 17 15 13 13 14 14 15 16 17 17 18 19 19 19 19 20 21 22 22 23 24 24 24 25 25 25 25 25 25 26 25 24 24 23 22 21 21 20 19 19 19 18 18 18 18 18 19 19 19
11 11 11 14 17 17 18 19 19 19 18 17 16 14 13 12 11 9 7 5 6 8 8 6 5 3 2 2 3 6 8 10 12 16 18 17 14 14 13 13 14 14 15 16 17 18 19 19 20 20 21 21 22 22 23 24 25 25 25 26 25 24 25 26 27 27 26 24 24 22 21 20 19 19 18 18 18 17 17 18 17 16 16 18 17
12 12 11 13 16 16 17 17 17 17 16 15 14 13 11 10 9 7 5 5 6 8 8 6 4 2 0 2 4 8 11 11 12 14 15 13 12 13 14 14 14 15 15 16 18 18 19 20 20 21 21 21 22 23 24 24 25 25 25 26 25 24 24 25 25 25 23 22 21 19 18 18 18 18 18 18 17 16 16 17 16 15 15 15 15
11 9 9 10 14 16 17 16 15 14 14 13 11 10 10 8 7 6 4 4 6 7 6 5 3 1 1 3 6 9 10 9 9 10 10 10 11 12 13 14 15 16 16 17 18 19 19 20 20 21 21 21 22 24 24 25 25 25 25 25 25 24 23 23 24 23 22 21 19 15 12 14 15 16 17 18 16 15 15 16 16 15 15 15 16
9 7 8 10 13 15 16 14 12 11 10 10 9 9 8 6 5 3 3 5 7 7 6 4 2 1 2 3 6 8 8 7 7 8 8 9 11 11 12 14 15 16 16 17 18 19 20 20 21 21 21 21 22 24 24 25 25 25 25 24 24 24 24 24 24 24 22 21 18 11 9 11 12 13 15 16 16 15 16 17 17 17 16 15 16
8 9 11 13 14 15 14 12 10 9 9 8 7 6 5 4 4 5 6 8 8 7 5 4 2 1 2 3 5 6 6 5 6 7 7 8 9 11 12 14 14 15 16 16 17 19 20 21 21 21 21 21 23 24 25 25 25 25 25 25 24 24 24 25 24 23 22 20 16 9 7 10 11 12 13 14 14 14 15 15 16 16 15 14 15
13 15 17 16 15 14 14 12 11 11 10 9 9 9 9 9 10 11 11 10 9 7 5 3 1 1 1 3 4 5 4 4 5 6 7 7 9 10 11 13 14 15 16 16 17 19 20 21 21 21 21 22 23 24 25 26 26 26 26 26 24 24 24 24 22 21 20 18 13 8 5 7 10 11 12 13 13 12 12 12 13 14 13 14 18
17 18 18 16 14 14 14 14 13 13 12 12 12 12 12 12 12 12 11 10 8 6 4 2 1 1 2 4 5 5 4 4 5 6 7 8 9 10 11 13 14 15 15 16 16 18 19 20 21 22 22 22 22 22 23 24 26 26 26 25 25 24 24 23 20 19 18 16 12 8 4 4 7 8 10 11 11 11 11 12 12 13 15 18 22
19 18 17 16 16 15 15 15 14 14 13 13 12 11 11 10 9 9 8 7 6 4 3 2 2 2 3 5 6 6 5 5 6 7 7 8 10 11 11 12 14 15 15 16 16 17 19 20 21 22 23 23 23 22 22 25 26 26 25 25 25 25 24 22 20 19 17 14 10 8 4 1 4 5 6 9 11 11 12 15 16 17 18 21 23
18 18 18 17 17 16 15 14 13 12 11 10 9 9 9 8 7 7 6 5 4 4 3 2 3 4 4 5 6 6 6 6 7 7 8 8 9 10 11 13 14 14 15 16 17 18 19 20 21 22 23 24 24 24 24 27 29 28 26 25 25 24 22 21 19 17 14 10 7 5 3 2 5 6 8 11 13 14 15 17 20 20 20 22 23
17 18 17 16 15 13 12 10 9 9 8 8 7 7 7 7 7 6 6 5 4 4 3 4 4 5 5 6 6 6 6 7 7 8 9 9 9 10 12 14 14 14 15 16 17 18 19 21 22 23 23 23 24 25 25 28 29 29 27 26 24 21 19 18 16 13 11 7 5 5 5 6 8 10 11 14 16 17 18 20 22 22 22 22 23
17 16 15 13 11 10 9 8 8 8 8 8 8 8 7 7 6 6 6 6 5 5 4 5 5 6 6 6 7 7 7 7 8 9 10 10 10 10 12 14 15 15 15 16 17 18 20 21 22 23 23 23 24 25 26 28 30 30 28 26 24 21 18 16 14 11 9 6 6 7 9 11 12 13 15 17 18 18 19 20 21 23 23 24 24
15 14 12 10 10 9 8 8 9 9 9 9 9 9 8 7 6 6 6 6 6 6 6 6 6 6 7 7 7 7 7 8 8 9 10 11 11 11 13 14 15 16 16 16 16 18 20 20 22 23 23 22 23 24 26 29 31 31 28 26 23 20 17 15 13 11 9 8 9 11 13 15 16 16 18 20 20 20 21 21 21 23 25 26 27
13 12 11 10 10 10 9 9 10 10 10 10 10 9 9 8 8 8 8 8 7 7 7 7 7 7 7 8 8 8 8 8 9 10 11 11 12 13 14 14 14 16 16 16 17 18 20 21 22 23 23 23 23 24 26 29 32 31 28 25 22 18 16 15 13 12 12 13 14 16 18 19 20 20 20 22 22 23 23 23 23 24 26 27 28
12 12 11 11 11 10 10 11 11 11 10 10 10 10 10 10 10 10 9 9 9 9 8 8 8 8 8 8 9 9 9 9 10 10 11 11 13 15 15 15 14 15 16 17 18 19 20 21 22 22 22 23 24 25 26 30 32 31 27 23 21 18 17 16 15 14 15 17 19 20 21 22 22 22 21 22 24 25 25 25 26 26 26 27 27
12 11 11 11 11 11 11 12 12 12 11 11 11 10 10 10 10 10 10 10 10 10 10 9 9 9 9 9 10 10 10 10 11 11 11 12 14 17 17 16 15 15 15 17 19 19 19 20 21 20 19 22 26 28 29 31 32 29 25 22 21 20 19 18 17 17 17 19 21 22 23 23 23 23 23 24 26 27 27 27 27 27 27 27 26
Wind_Direction
238 238 239 240 241 241 240 239 238 238 239 242 244 245 246 247 247 245 239 232 227 223 219 215 211 206 202 200 198 199 201 200 198 195 181 142 108 74 41 47 76 68 47 36 33 27 13 3 357 351 350 344 336 329 317 307 300 288 280 277 272 270 270 270 273 280 282 281 282 284 287 293 294 293 294 299 305 309 309 309 307 302 295 288 282
246 246 243 241 242 244 244 244 244 242 241 242 243 244 246 247 248 246 242 235 229 225 221 217 213 209 205 200 196 197 197 198 198 192 180 170 158 80 33 103 126 100 63 31 5 355 350 346 341 339 339 336 331 325 317 307 296 285 278 276 274 271 271 273 276 282 286 287 285 285 287 289 289 289 293 297 302 307 306 304 306 307 302 294 287
252 252 249 247 248 247 246 247 247 246 245 245 245 245 245 245 246 246 243 238 230 225 223 219 214 210 207 202 199 199 198 199 200 194 183 180 188 232 254 159 157 144 68 344 335 336 336 335 332 331 331 329 323 320 314 304 295 287 279 275 273 271 269 271 275 279 285 288 287 286 288 290 288 288 290 292 296 300 299 297 297 298 301 300 293
257 254 252 253 255 254 251 249 248 247 248 248 248 248 247 246 245 243 241 238 230 224 221 218 213 210 207 204 203 202 201 202 202 193 188 190 195 207 204 192 198 254 303 312 317 321 323 322 322 322 322 319 315 313 309 302 297 290 283 278 273 270 268 266 269 275 281 284 284 283 285 287 287 288 289 289 291 291 289 289 291 291 291 295 295
269 263 260 259 259 259 256 253 250 249 250 252 253 252 250 248 246 244 241 236 228 221 217 214 212 210 207 206 206 205 205 206 200 193 198 203 203 201 202 217 260 290 300 306 310 313 314 313 312 314 312 308 306 305 302 298 295 289 284 281 277 273 270 266 266 269 274 279 282 283 283 282 283 285 287 288 289 288 284 282 285 287 288 290 291
318 282 274 270 267 266 264 262 260 257 255 255 256 255 253 251 249 244 239 233 226 219 214 210 209 209 209 209 208 206 205 201 194 195 202 204 204 209 222 250 276 287 297 305 307 308 309 307 306 306 303 298 297 296 295 293 290 286 283 281 279 276 273 268 266 266 268 273 279 281 280 279 279 280 281 283 286 288 288 284 281 282 285 287 287
11 339 299 282 275 272 271 271 272 270 264 259 257 256 256 255 250 242 238 237 229 219 214 211 209 208 208 206 205 204 201 196 195 197 200 201 208 224 244 265 280 289 296 301 304 305 306 305 303 300 295 290 289 289 289 289 286 282 281 279 278 276 273 270 268 266 265 268 272 276 278 277 276 275 276 277 278 279 282 283 281 278 277 280 283
9 0 338 301 283 278 275 275 276 275 271 266 261 258 256 255 251 245 242 238 228 217 213 211 207 204 203 201 200 200 197 193 193 195 200 210 220 236 261 282 294 301 304 306 307 308 307 304 301 297 290 285 283 283 282 282 282 281 279 276 274 274 275 273 270 267 265 265 267 271 274 274 272 273 274 272 271 270 271 275 280 281 279 277 279
359 353 344 321 300 292 286 280 275 273 271 268 264 260 257 253 251 247 242 235 226 217 212 208 203 199 196 195 195 195 192 190 192 196 203 213 227 250 281 301 312 316 315 313 311 309 307 303 299 296 292 288 286 283 280 275 273 274 274 274 273 272 272 271 270 269 267 266 266 268 270 269 268 269 270 266 267 272 274 274 275 279 281 280 276
351 344 337 327 319 315 306 294 282 272 269 267 265 263 258 254 250 245 239 233 224 215 209 205 202 198 193 190 188 186 186 187 191 198 202 208 229 277 306 321 328 328 324 319 313 309 306 301 296 295 296 294 291 287 283 279 273 268 267 267 268 269 270 268 266 265 267 267 267 267 268 267 265 265 267 267 270 275 275 273 273 276 279 280 276
342 336 331 327 325 323 318 308 291 274 266 265 266 264 259 253 249 243 237 230 221 213 206 202 199 197 192 187 181 177 178 181 186 191 194 203 228 304 330 335 334 330 325 319 312 307 304 299 294 293 293 292 290 285 283 281 278 273 268 263 261 261 262 264 264 263 262 264 264 264 264 266 267 266 267 268 271 272 272 272 272 273 273 273 275
330 327 325 325 323 320 316 311 299 282 269 261 260 261 258 252 246 239 233 226 217 209 202 197 193 191 188 182 176 171 170 173 177 178 181 198 248 334 343 340 336 330 324 317 310 305 301 298 295 292 288 289 291 286 280 278 278 276 273 269 265 260 256 256 258 259 260 262 263 261 261 264 266 265 265 267 271 273 273 270 268 267 266 266 268
320 317 316 316 316 314 311 307 300 290 277 263 255 256 254 247 241 236 230 222 212 201 195 192 188 184 180 175 170 165 162 164 168 168 171 199 317 343 346 343 337 330 325 319 311 304 300 297 295 291 288 291 291 285 278 277 276 275 275 273 270 267 262 257 255 255 256 259 261 261 260 261 264 264 266 270 272 272 270 268 265 262 262 262 263
313 311 310 309 308 307 305 300 296 292 282 265 250 249 248 243 237 232 224 214 203 194 189 184 179 175 173 171 166 160 157 159 164 166 174 284 332 341 344 342 338 333 328 322 313 306 300 296 293 291 290 288 286 283 282 283 282 280 279 275 271 270 268 265 261 257 255 254 256 259 259 260 262 264 265 268 268 266 266 267 266 263 262 264 268
306 304 304 305 304 304 302 297 294 290 280 263 245 240 241 238 231 224 216 207 197 189 183 177 172 168 168 167 162 157 156 158 163 174 240 323 335 343 344 341 337 332 327 323 316 307 300 294 289 288 288 287 284 284 286 288 288 286 282 278 275 272 269 266 262 259 256 253 253 257 259 259 261 263 263 263 264 263 263 265 265 266 267 268 270
297 297 298 300 300 301 300 296 292 288 277 259 243 234 233 231 223 214 205 196 189 182 176 170 167 164 163 164 162 159 160 168 185 235 311 330 340 346 344 338 333 327 322 320 315 308 299 292 289 287 287 287 286 286 287 290 290 287 284 281 279 275 271 268 264 261 259 257 256 257 259 259 258 259 258 258 259 263 266 265 261 260 262 263 262
287 289 291 293 296 296 295 291 288 285 274 256 241 229 225 223 216 206 195 185 177 173 167 164 163 162 159 160 162 161 161 171 196 302 329 336 343 345 340 331 324 320 318 316 312 306 296 290 291 290 289 288 287 286 287 290 289 287 285 284 281 277 275 274 272 270 267 264 262 261 261 260 258 258 258 257 257 259 262 260 255 250 251 253 254
282 282 283 287 290 290 288 285 282 278 267 251 236 222 217 213 204 196 189 178 169 163 159 155 154 154 150 146 146 145 144 149 35 341 334 333 338 338 333 325 321 319 318 315 310 304 297 294 291 287 285 285 284 283 283 286 288 286 285 283 281 278 277 277 277 276 274 272 270 267 265 264 262 260 259 258 255 253 251 251 250 247 247 246 249
285 283 282 284 284 282 282 279 274 268 257 242 226 212 203 195 186 180 173 163 154 150 146 140 135 132 131 128 126 123 118 100 351 339 331 328 331 333 329 323 320 319 316 314 311 305 301 299 294 288 285 285 285 285 285 287 287 285 283 282 279 277 277 277 277 277 276 275 273 271 270 268 266 263 261 259 255 249 245 245 244 243 245 245 245
290 287 285 284 282 279 278 273 268 259 243 227 213 199 187 175 165 156 146 138 135 133 128 124 121 119 118 114 108 100 83 15 335 328 324 322 326 328 325 319 317 316 313 311 311 307 304 301 298 293 289 287 287 287 287 287 285 283 281 279 276 276 278 278 276 276 276 275 273 273 271 269 267 264 260 257 254 247 242 239 237 237 241 243 242
291 289 287 285 282 279 273 265 257 242 226 212 195 181 173 162 151 143 136 130 127 124 118 114 114 113 110 102 81 49 356 328 319 319 321 322 323 323 317 311 312 312 309 308 308 305 302 300 297 294 291 288 287 288 288 287 284 282 279 275 273 275 277 277 276 276 275 274 273 272 270 268 265 262 258 254 251 246 241 238 234 234 236 236 237
288 288 287 285 282 275 265 252 233 215 206 193 174 159 155 151 145 140 136 132 130 127 121 117 114 111 105 98 64 347 321 319 319 320 322 321 319 317 312 310 313 311 305 305 304 300 298 297 295 293 291 288 288 288 288 287 285 280 277 274 273 274 274 274 274 274 272 270 269 267 265 264 262 259 255 252 249 245 242 239 236 235 235 235 234
291 289 286 283 277 262 242 224 204 189 179 168 156 145 142 142 140 137 134 131 128 123 118 113 113 111 106 88 23 344 333 329 326 324 324 320 318 317 314 314 316 311 302 301 301 298 296 295 294 292 291 289 289 289 288 286 283 278 275 274 274 274 273 271 270 269 267 265 263 261 259 258 257 256 254 251 249 246 243 241 239 237 237 237 236
293 288 283 275 256 228 208 192 178 166 158 151 144 139 137 137 136 133 130 127 123 121 118 117 119 119 112 67 17 2 347 336 330 326 324 319 316 315 314 314 316 312 303 298 298 297 295 295 294 294 294 293 292 291 290 287 282 278 276 276 275 275 272 269 266 263 260 258 256 255 253 251 251 252 251 250 251 250 248 247 245 241 240 240 239
290 282 270 240 202 185 172 161 154 149 146 142 139 137 137 136 132 129 125 123 121 122 123 123 119 107 79 43 23 7 351 339 333 327 321 317 314 315 317 319 319 315 308 302 299 299 298 298 298 298 298 297 296 294 291 287 284 282 281 280 277 273 269 265 261 258 255 253 251 251 251 249 247 248 250 250 251 252 251 250 249 246 244 242 241
277 255 210 171 161 154 146 140 138 137 137 137 136 136 134 131 128 126 124 122 123 124 125 121 106 87 68 44 23 10 359 346 336 328 322 319 319 321 325 325 321 316 312 308 306 306 305 303 302 300 299 298 296 295 292 290 289 288 286 283 277 271 265 261 257 254 252 251 251 251 252 252 251 250 249 247 246 247 247 247 248 247 244 241 241
185 152 141 139 140 138 134 132 132 133 135 135 134 132 129 127 128 130 130 129 128 127 125 119 107 98 87 62 37 20 4 350 339 334 330 327 327 327 330 328 324 321 319 316 313 311 308 305 303 302 302 301 300 298 297 297 295 293 289 284 277 270 265 262 259 258 257 256 256 255 255 254 253 250 246 243 242 241 241 241 242 244 243 241 240
130 123 123 124 126 128 130 132 134 135 136 136 135 134 134 133 131 132 133 133 131 128 122 115 108 105 96 76 53 29 8 357 350 343 339 338 337 336 334 332 328 324 321 319 316 312 309 308 308 309 309 308 307 305 303 300 297 293 290 287 282 277 273 270 267 266 265 263 260 258 257 254 251 248 243 239 239 238 237 236 237 240 242 241 240
118 117 120 121 121 123 125 130 134 136 137 136 135 135 136 134 130 127 126 127 127 125 122 121 118 110 103 93 73 45 17 2 356 351 347 346 346 342 336 332 329 325 324 325 323 317 314 315 316 315 314 313 311 309 306 304 301 297 293 291 288 284 281 279 276 274 272 268 262 258 256 253 250 247 242 238 237 237 235 234 235 238 240 241 241
112 114 118 120 122 123 125 129 133 135 135 134 132 129 127 126 125 125 125 126 125 121 117 118 117 109 106 102 81 52 29 9 1 358 355 352 351 348 343 340 338 337 336 335 330 323 321 321 319 318 317 315 313 310 309 307 305 301 298 296 292 287 284 282 281 280 277 271 263 259 256 252 249 245 241 239 239 238 235 234 236 238 238 237 239
113 116 120 123 126 130 133 135 135 133 131 131 130 127 125 123 124 127 127 125 122 118 113 113 110 102 102 101 79 47 27 14 7 4 359 355 354 354 354 355 355 352 348 343 333 327 327 325 322 320 318 315 312 311 310 308 305 303 302 300 296 292 287 283 281 281 278 272 266 260 255 250 246 243 240 238 238 237 235 234 236 237 237 235 234
124 128 132 136 138 140 141 141 140 135 132 132 132 132 130 128 128 130 131 130 127 125 120 115 107 94 88 87 72 42 23 16 11 7 4 1 359 358 2 5 3 358 355 349 337 332 331 327 322 319 316 314 312 310 308 306 305 303 302 301 299 296 291 287 285 284 281 276 269 263 256 249 245 242 239 236 234 232 231 230 230 232 234 234 232
143 148 151 150 149 146 144 144 146 143 139 138 138 138 138 137 137 139 142 142 140 135 124 112 102 90 79 72 59 38 23 17 14 11 10 7 3 1 3 4 2 0 358 352 340 333 330 326 321 318 316 314 312 309 307 306 305 304 302 299 298 297 294 292 291 289 285 279 273 268 261 252 244 239 236 232 228 226 226 225 225 226 228 230 228
167 169 166 161 159 156 152 151 152 150 148 147 148 149 150 149 149 151 153 153 150 141 126 110 98 87 78 69 52 34 23 19 18 17 16 11 7 7 4 359 357 359 358 352 341 333 329 325 321 318 317 316 314 312 310 308 306 305 303 301 299 298 298 297 296 292 287 282 277 271 264 255 243 235 232 227 223 222 222 221 221 223 223 224 223
193 192 189 185 182 175 164 158 157 156 156 157 159 160 160 158 158 158 158 159 159 150 133 117 106 90 78 72 53 28 17 18 19 19 17 13 11 11 6 357 354 356 356 352 344 336 330 326 321 318 317 317 316 315 313 311 310 308 306 305 303 301 300 299 297 294 290 286 281 274 266 255 242 232 227 223 219 219 220 218 219 222 220 219 220
214 221 222 215 202 187 171 163 162 163 164 166 167 167 166 165 166 166 162 159 161 156 144 131 116 93 72 67 52 20 8 11 14 14 15 14 14 12 5 356 351 350 349 347 344 338 332 329 324 320 318 318 318 318 316 314 313 310 308 307 306 302 300 299 299 298 294 288 283 277 266 253 239 228 223 220 219 219 220 218 217 218 216 214 215
228 236 235 223 210 193 174 165 166 167 168 169 171 171 171 173 177 177 168 152 152 155 152 140 121 98 65 42 30 15 5 3 6 9 11 13 13 9 3 356 351 348 345 344 342 339 334 332 328 324 322 321 320 320 319 317 315 313 312 310 307 302 301 302 302 301 296 290 287 280 266 248 234 223 218 217 217 218 218 217 217 214 208 205 206
234 240 236 223 209 193 177 168 166 168 171 173 175 178 183 190 192 186 171 149 151 158 157 147 135 132 209 332 358 7 5 0 1 5 7 8 6 4 1 357 353 350 346 342 341 339 336 333 329 326 325 325 323 322 322 321 319 317 315 313 310 307 306 307 307 306 302 297 295 286 265 244 229 219 214 214 215 215 214 212 212 209 205 202 205
229 235 234 220 205 191 180 172 167 167 173 178 182 187 197 202 197 185 171 153 152 156 153 143 137 151 290 322 350 5 7 0 356 357 357 358 359 359 357 355 353 351 347 344 343 342 338 334 330 328 327 327 325 324 324 324 323 321 319 317 314 312 313 314 315 314 313 311 307 294 261 237 225 218 216 215 212 209 209 207 205 204 205 204 206
208 211 209 199 188 179 174 168 163 164 171 177 183 190 199 205 202 194 177 154 145 144 138 131 140 229 285 322 354 7 5 352 344 348 351 352 354 355 355 354 352 350 348 346 345 343 339 334 331 329 329 329 328 328 328 327 325 324 323 321 318 317 319 323 324 322 322 322 319 301 252 229 222 216 214 214 211 208 208 208 206 205 207 207 204
170 166 163 161 158 156 154 151 150 155 161 166 168 168 165 153 134 130 133 132 129 126 120 116 140 248 299 338 356 4 0 344 337 343 349 350 351 352 353 352 350 348 348 348 347 344 339 334 332 332 332 331 331 331 332 331 330 329 328 327 325 324 327 330 330 328 328 330 329 312 255 230 224 217 213 212 212 210 207 206 206 203 203 200 187
145 141 136 136 141 141 138 136 139 143 144 140 131 121 114 110 109 111 117 120 117 115 113 115 144 239 335 355 354 355 357 349 340 342 346 351 353 354 353 351 351 350 349 348 348 344 339 336 336 336 335 334 333 333 334 335 334 333 332 331 330 331 333 334 332 331 334 338 339 331 281 237 227 224 220 214 211 208 203 198 196 190 183 175 163
136 133 129 131 135 132 128 129 132 130 125 118 113 108 106 105 104 104 107 108 108 109 112 108 101 310 345 358 3 5 5 358 346 344 346 350 353 355 353 351 350 351 350 350 350 348 343 340 340 340 339 338 337 336 336 338 339 337 335 335 335 336 338 337 333 334 339 345 349 348 323 248 225 222 220 212 205 196 186 178 172 164 156 153 149
129 127 127 128 125 123 123 124 122 117 113 108 105 101 97 93 91 89 89 89 89 88 82 39 359 349 350 359 8 12 9 360 349 344 344 347 351 353 352 349 349 350 350 351 351 350 348 346 344 343 343 343 343 342 342 345 346 344 341 340 339 340 342 342 339 340 344 349 355 1 355 240 195 187 187 185 177 167 157 154 150 145 143 143 142
120 121 121 119 115 112 112 110 107 105 102 95 89 84 79 74 71 70 71 72 68 59 42 13 360 360 360 3 7 6 3 358 351 344 341 344 348 350 350 349 348 348 350 351 351 351 351 350 348 347 347 346 347 348 350 352 354 353 352 350 348 347 347 347 346 346 348 352 2 14 29 114 139 138 143 151 151 145 141 141 141 138 136 136 136
110 109 108 106 103 100 95 93 91 91 88 81 74 68 63 60 59 59 59 59 57 47 31 15 7 6 4 3 2 0 358 355 350 344 341 342 345 349 350 351 348 347 348 350 351 353 353 353 352 351 349 348 350 353 355 356 358 360 1 1 360 357 355 354 354 354 355 3 28 51 73 101 113 119 127 132 132 131 130 131 132 131 129 128 129
100 96 92 90 87 82 79 79 78 76 74 71 67 63 57 53 53 54 53 51 49 43 32 20 14 9 5 2 358 355 355 352 347 343 343 342 343 346 350 350 347 345 345 349 352 354 355 354 354 353 351 349 352 356 359 1 4 6 7 8 8 7 2 0 4 11 17 33 63 83 94 99 102 109 118 120 118 117 118 120 123 124 124 123 123
89 84 79 75 74 74 74 73 71 70 70 68 64 61 57 52 48 47 45 44 42 37 30 24 16 8 3 360 355 351 352 351 348 346 346 344 344 347 350 350 347 345 345 348 351 354 354 353 353 354 353 352 354 358 3 6 8 11 13 14 14 13 10 10 18 32 48 66 82 93 98 99 98 103 109 111 110 110 110 111 115 117 118 119 120
75 74 72 71 72 72 71 71 71 70 69 68 66 62 57 53 49 47 44 42 40 36 31 25 18 10 4 359 355 351 352 354 353 350 347 348 350 352 352 351 350 348 348 349 352 354 355 355 355 356 357 358 359 1 5 10 12 14 17 18 19 19 21 26 36 51 67 79 88 94 98 98 97 98 102 105 108 109 108 109 112 114 115 116 118
67 68 69 71 71 71 70 71 72 71 69 70 70 66 61 58 54 51 48 46 42 39 35 29 21 14 7 1 357 354 353 355 354 350 347 349 354 357 355 353 352 350 350 352 354 356 358 359 358 357 359 2 4 6 10 14 16 17 19 23 27 30 34 40 50 61 74 84 89 91 94 96 95 94 96 101 104 106 107 108 111 112 112 114 116
64 65 68 69 70 71 71 71 71 71 71 71 70 68 66 63 59 54 53 51 47 44 41 38 32 25 19 12 6 1 359 358 357 355 351 352 357 0 358 355 354 352 350 351 354 358 2 4 2 360 360 3 7 12 17 20 21 22 24 28 34 40 45 52 60 68 78 86 90 91 93 94 94 93 96 100 103 105 106 107 109 109 109 111 113